Weather History for KARA - April, 2014

Change the Weather History Date:

Thursday, April 17, 2014

  Actual Average Record
Temperature  
Mean Temperature 58 °F 68 °F  
Max Temperature 65 °F 80 °F 89 °F (2006)
Min Temperature 51 °F 57 °F 42 °F (1999)
Degree Days  
Heating Degree Days 7 1  
Month to date heating degree days 43 37  
Since 1 July heating degree days 1780 1401  
Cooling Degree Days 0 4  
Month to date cooling degree days 49 61  
Year to date cooling degree days 90 144  
Growing Degree Days 8 (Base 50)    
Moisture  
Dew Point 53 °F    
Average Humidity 79    
Maximum Humidity 90    
Minimum Humidity 67    
Precipitation  
Precipitation 0.00 in 0.15 in 3.30 in (1973)
Month to date precipitation 2.24 2.51  
Year to date precipitation 12.09 15.69  
Sea Level Pressure  
Sea Level Pressure 30.14 in    
Wind  
Wind Speed 8 mph (ENE)    
Max Wind Speed 14 mph    
Max Gust Speed 17 mph    
Visibility 9 miles    
Events      
T = Trace of Precipitation, MM = Missing Value Source: NWS Daily Summary

Daily Weather History Graph

Daily Weather History Graph

Search for Another Location

Airport or City:

Trip Planner

Search our weather history database for the weather conditions in past years. The results will help you decide how hot, cold, wet, or windy it might be!

Date:

Astronomy

Apr. 17, 2014 Rise Set
Actual Time 6:38 AM CDT 7:36 PM CDT
Civil Twilight 6:13 AM CDT 8:00 PM CDT
Nautical Twilight 5:44 AM CDT 8:29 PM CDT
Astronomical Twilight 5:14 AM CDT 8:59 PM CDT
Moon 10:13 PM CDT (4/17) 8:18 AM CDT (4/17)
Length of Visible Light 13h 46m
Length of Day
12h 57m
Waning Gibbous, 93% of the Moon is Illuminated
Apr 17
Waning Gibbous
Apr 22
Last Quarter
Apr 29
New
May 6
First Quarter
May 14
Full

Hourly Weather History & Observations

Time (CDT) Temp. Dew Point Humidity Pressure Visibility Wind Dir Wind Speed Gust Speed Precip Events Conditions
12:53 AM 51.1 °F 46.9 °F 86% 30.14 in 10.0 mi ESE 6.9 mph - N/A   Clear
1:53 AM 52.0 °F 46.9 °F 83% 30.12 in 10.0 mi ESE 9.2 mph - N/A   Clear
2:53 AM 51.1 °F 46.9 °F 86% 30.13 in 10.0 mi East 3.5 mph - N/A   Clear
3:53 AM 53.1 °F 48.0 °F 83% 30.12 in 10.0 mi ENE 6.9 mph - N/A   Overcast
4:53 AM 53.1 °F 48.0 °F 83% 30.12 in 10.0 mi ENE 9.2 mph - N/A   Overcast
5:53 AM 54.0 °F 48.9 °F 83% 30.13 in 10.0 mi NE 6.9 mph - N/A   Overcast
6:53 AM 54.0 °F 48.9 °F 83% 30.15 in 10.0 mi North 4.6 mph - N/A   Overcast
7:53 AM 55.0 °F 48.9 °F 80% 30.17 in 9.0 mi NE 6.9 mph - N/A   Overcast
8:53 AM 59.0 °F 52.0 °F 78% 30.17 in 8.0 mi NE 6.9 mph - N/A   Overcast
9:53 AM 62.1 °F 51.1 °F 67% 30.17 in 10.0 mi ENE 9.2 mph - N/A   Overcast
10:53 AM 63.0 °F 52.0 °F 67% 30.20 in 10.0 mi ENE 8.1 mph - N/A   Partly Cloudy
12:53 PM 63.0 °F 53.1 °F 70% 30.17 in 10.0 mi ENE 9.2 mph - N/A   Clear
1:53 PM 63.0 °F 53.1 °F 70% 30.16 in 10.0 mi ENE 9.2 mph - N/A   Partly Cloudy
2:53 PM 64.0 °F 54.0 °F 70% 30.13 in 10.0 mi ENE 9.2 mph - N/A   Mostly Cloudy
3:53 PM 64.9 °F 55.0 °F 70% 30.10 in 10.0 mi ENE 9.2 mph - N/A   Scattered Clouds
4:53 PM 64.9 °F 55.9 °F 73% 30.11 in 10.0 mi ENE 10.4 mph - N/A   Overcast
5:53 PM 64.9 °F 57.0 °F 75% 30.12 in 9.0 mi ENE 10.4 mph - N/A   Overcast
6:53 PM 64.9 °F 57.9 °F 78% 30.12 in 8.0 mi ENE 6.9 mph - N/A   Overcast
7:53 PM 63.0 °F 57.9 °F 84% 30.13 in 7.0 mi NNE 5.8 mph - N/A   Overcast
8:30 PM 64.0 °F 57.9 °F 80% 30.12 in 7.0 mi NNE 9.2 mph - N/A   Overcast
8:53 PM 64.0 °F 57.9 °F 80% 30.12 in 9.0 mi NE 8.1 mph - N/A   Overcast
9:53 PM 64.0 °F 59.0 °F 84% 30.13 in 9.0 mi NE 9.2 mph - N/A   Overcast
10:53 PM 63.0 °F 59.0 °F 87% 30.12 in 9.0 mi NE 6.9 mph - N/A   Overcast
11:53 PM 63.0 °F 59.0 °F 87% 30.13 in 10.0 mi ENE 6.9 mph - N/A   Overcast